Content
SEND FEEDBACK

Daily
Averages
Monthly
Summary
Argentina

IGUAZU, ARGENTINA


Home > South America > Argentina
Elevation: 886 feet     Latitude: 25 44S     Longitude: 054 28W

WEATHER
 
SELECT A DAY
Number of Records: 159,940;   Date Range: 6/30/96 - 7/28/14
 
SHARE

PRINT THIS DATA

[ ← Previous Day ]
WEATHER ALMANAC - JANUARY 31, 2013
[ Next Day → ]
[ °C ]   °F
Weather ElementAverageHighLow
Temperature82.3 °F95 °F (2:00 pm)66.2 °F (5:00 am)
Dewpoint69 °F71.6 °F (10:00 am)64.4 °F (5:00 am)
Humidity65.7 %94 % (4:00 am)38 % (3:00 pm)
Barometer29.84 in29.92 in (8:00 am)29.74 in (9:00 pm)
Wind Speed6.7 mph12.7 mph (3:00 pm)
Weather ElementAverage
Visibility9.1 mi
Wind DirectionENE (79.6 °)

Weather ElementTotal
Precipitation---
Cooling Degree Days15.6 (Base 65)
Growing Degree Days30.6 (Base 50)
Averaged from 27 records on January 31, 2013
WEATHER CONDITIONS BREAKOUT
WIND DIRECTION BREAKOUT
WEATHER BY HOUR - JANUARY 31, 2013
[ °C ]   °F
Local TimeTemperatureDewpointHumidityBarometerVisibilityWind DirectionWind SpeedGust SpeedPrecipitationEventsConditions
1:00 AM73.4 °F68.0 °F83 %29.86 inNE (50°)3.5 mphClear
2:00 AM71.6 °F68.0 °F88 %29.86 inCalmClear
3:00 AM70.0 °F67.0 °F87 %29.78 in12.0 miNNE (20°)9.2 mph
3:00 AM69.8 °F66.2 °F88 %29.86 inNNE (20°)9.2 mphClear
4:00 AM68.0 °F66.2 °F94 %29.86 inNE (50°)4.6 mphClear
5:00 AM66.2 °F64.4 °F94 %29.86 inNE (50°)4.6 mphClear
6:00 AM66.2 °F64.4 °F94 %29.89 inNE (50°)5.8 mphClear
7:00 AM68.0 °F64.4 °F88 %29.89 inNE (50°)6.9 mphClear
8:00 AM73.4 °F68.0 °F83 %29.92 inNE (50°)9.2 mphClear
9:00 AM78.0 °F69.0 °F67 %29.85 in12.0 miNE (50°)8.1 mph
9:00 AM77.0 °F69.8 °F78 %29.92 inNE (50°)8.1 mphClear
10:00 AM84.2 °F71.6 °F66 %29.92 inEast (90°)11.5 mphClear
11:00 AM86.0 °F71.6 °F62 %29.92 inNE (50°)9.2 mphClear
12:00 PM89.6 °F71.6 °F55 %29.89 inNE (50°)6.9 mphClear
1:00 PM91.4 °F71.6 °F52 %29.89 in6.2 miNorth (360°)5.8 mphPartly Cloudy
2:00 PM95.0 °F71.6 °F47 %29.86 in6.2 miNE (50°)9.2 mphMostly Cloudy
3:00 PM94.0 °F71.0 °F38 %29.77 in12.0 miNE (50°)12.7 mphMostly Cloudy
3:00 PM95.0 °F71.6 °F47 %29.83 in6.2 miNE (50°)12.7 mphMostly Cloudy
4:00 PM95.0 °F71.6 °F47 %29.80 in6.2 miNE (50°)6.9 mphScattered Clouds
5:00 PM95.0 °F69.8 °F44 %29.80 inSE (140°)5.8 mphClear
6:00 PM95.0 °F71.6 °F47 %29.77 inSE (140°)5.8 mphClear
7:00 PM93.2 °F71.6 °F49 %29.77 inSouth (180°)4.6 mphClear
8:00 PM89.6 °F71.6 °F55 %29.77 inSSE (160°)4.6 mphClear
9:00 PM86.0 °F69.0 °F47 %29.74 in12.0 miESE (110°)4.6 mph
9:00 PM86.0 °F68.0 °F55 %29.80 inESE (110°)4.6 mphClear
10:00 PM86.0 °F66.2 °F51 %29.83 inNE (50°)3.5 mphClear
11:00 PM78.8 °F68.0 °F69 %29.83 inENE (70°)3.5 mphClear
Hourly data recorded from SARI, located miles away from Iguazu, Argentina







STORIES FROM OUR PARTNERS